Back to catalog

STARLINK-30528

AliveCommunicationsVLEO
NORAD 57967·PAYLOAD·🇺🇸 United States

Launched Sep 30, 2023 from Cape Canaveral Space Force Station

Loading…

Next Passes (next 24 hours)

TLE

FreshSource: CelesTrak SupGP

Epoch: Sep 15, 2026, 02:45 UTC

1 57967C 23151D   26258.11506944  .00037743  00000+0  13670-2 0  2589
2 57967  43.0028 346.0653 0001755 265.6631 269.9194 15.27560067    17

Track STARLINK-30528 in real time with AllMySat

Download on the App Store